Powrót do katalogu

COSMOS 931 DEB

LostHEO
NORAD 12815·DEBRIS·🇷🇺 Russia

Wystrzelony Jul 20, 1977 z Plesetsk Cosmodrome

Loading…

Następne Przeloty (najbliższe 24 godziny)

TLE

NieaktualneSource: Space-Track

Epoka: Jun 8, 2024, 22:42 UTC

1 12815U 77068E   24160.94635836 -.00000553  00000-0  00000+0 0  9995
2 12815  68.9809 322.0106 5714684 340.6315 359.4713  2.01211415136920

Śledź COSMOS 931 DEB w czasie rzeczywistym z AllMySat

Download on the App Store